Skip Page Navigation
NASA JPL Caltech
NASA Logo - Jet Propulsion Laboratory + View the NASA Portal
+ Near-Earth Object (NEO) Program
Search JPL
JPL Home Earth Solar System Stars & Galaxies Technology
JPL Solar System Dynamics
BODIES ORBITS EPHEMERIDES TOOLS PHYSICAL DATA DISCOVERY FAQ SITE MAP
JPL Small-Body Database Browser
Search: [ help ]  
217642 (1997 UD22)
Classification: Main-belt Asteroid          SPK-ID: 2217642
Ephemeris | Orbit Diagram | Orbital Elements | Physical Parameters | Discovery Circumstances ]

[ show orbit diagram ]
Orbital Elements at Epoch 2457000.5 (2014-Dec-09.0) TDB
Reference: JPL 7 (heliocentric ecliptic J2000)
 Element Value Uncertainty (1-sigma)   Units 
e .207104376345096 9.6978e-08  
a 2.557572722058343 2.7465e-08 AU
q 2.02788821849922 2.5213e-07 AU
i 8.586013881943316 1.031e-05 deg
node 124.3117135710115 6.2915e-05 deg
peri 260.0779063153261 7.1256e-05 deg
M 77.30044775287081 3.4041e-05 deg
tp 2456679.710664025746
(2014-Jan-22.21066403)
0.00013748 JED
period 1493.964967964142
4.09
2.4065e-05
6.589e-08
d
yr
n .2409695057914106 3.8815e-09 deg/d
Q 3.087257225617465 3.3153e-08 AU
  Orbit Determination Parameters
   # obs. used (total)      233  
   data-arc span      6328 days (17.33 yr)  
   first obs. used      1997-10-31  
   last obs. used      2015-02-27  
   planetary ephem.      DE431  
   SB-pert. ephem.      SB431-BIG16  
   condition code      0  
   fit RMS      .56733  
   data source      ORB  
   producer      Otto Matic  
   solution date      2015-Mar-09 22:03:37  

Additional Information
 Earth MOID = 1.05202 AU 
 T_jup = 3.391 
[ show covariance matrix ]

Ephemeris | Orbit Diagram | Orbital Elements | Physical Parameters | Discovery Circumstances ]

Physical Parameter Table
Parameter Symbol Value Units Sigma Reference Notes
absolute magnitude H 16.5 mag n/a MPO321068  

217642 (1997 UD22)          Discovered 1997-Oct-31 by Beijing Schmidt CCD Asteroid Program at Xinglong
Reference: 20090904/Numbers.arcLast Updated: 2009-09-08

Alternate Designations
 1997 UD22 = 2001 TS202 
Ephemeris | Orbit Diagram | Orbital Elements | Physical Parameters | Discovery Circumstances ]
ABOUT SSD CREDITS/AWARDS PRIVACY/COPYRIGHT GLOSSARY LINKS
FirstGov 2015-Mar-28 00:32 UT
(server date/time)  
NASA Home Page
Site Manager:   Ryan S. Park
Webmaster  Alan B. Chamberlin